�p�l������,�ʖ���,����,����
�͐쐅�ʏ��,�����@��������,2022/9/12 12:50,-2.25
�͐쐅�ʏ��,�����@��������,2022/9/12 13:00,-2.25
�͐쐅�ʏ��,�����@��������,2022/9/12 13:10,-2.25
�͐쐅�ʏ��,�����@��������,2022/9/12 13:20,-2.25
�͐쐅�ʏ��,�����@��������,2022/9/12 13:30,-2.25
�͐쐅�ʏ��,�����@��������,2022/9/12 13:40,-2.25
�͐쐅�ʏ��,�����@��������,2022/9/12 13:50,-2.25
�͐쐅�ʏ��,�����@��������,2022/9/12 14:00,-2.25
�͐쐅�ʏ��,�����@��������,2022/9/12 14:10,-2.25
�͐쐅�ʏ��,�����@��������,2022/9/12 14:20,-2.25
�͐쐅�ʏ��,�����@��������,2022/9/12 14:30,-2.25
�͐쐅�ʏ��,�����@��������,2022/9/12 14:40,-2.25
�͐쐅�ʏ��,�����@��������,2022/9/12 14:50,-2.25
�͐쐅�ʏ��,�����@��������,2022/9/12 15:00,-2.25
�͐쐅�ʏ��,�����@��������,2022/9/12 15:10,-2.25
�͐쐅�ʏ��,�����@��������,2022/9/12 15:20,-2.25
�͐쐅�ʏ��,�����@��������,2022/9/12 15:30,-2.25
�͐쐅�ʏ��,�����@��������,2022/9/12 15:40,-2.25
�͐쐅�ʏ��,�����@��������,2022/9/12 15:50,-2.25
�͐쐅�ʏ��,�����@��������,2022/9/12 16:00,-2.25
�͐쐅�ʏ��,�����@��������,2022/9/12 16:10,-2.25
�͐쐅�ʏ��,�����@��������,2022/9/12 16:20,-2.25
�͐쐅�ʏ��,�����@��������,2022/9/12 16:30,-2.25
�͐쐅�ʏ��,�����@��������,2022/9/12 16:40,-2.25
�͐쐅�ʏ��,�����@��������,2022/9/12 16:50,-2.25
�͐쐅�ʏ��,�����@��������,2022/9/12 17:00,-2.25
�͐쐅�ʏ��,�����@��������,2022/9/12 17:10,-2.25
�͐쐅�ʏ��,�����@��������,2022/9/12 17:20,-2.25
�͐쐅�ʏ��,�����@��������,2022/9/12 17:30,-2.25
�͐쐅�ʏ��,�����@��������,2022/9/12 17:40,-2.25
�͐쐅�ʏ��,�����@��������,2022/9/12 17:50,-2.25
�͐쐅�ʏ��,�����@��������,2022/9/12 18:00,-2.25
�͐쐅�ʏ��,�����@��������,2022/9/12 18:10,-2.25
�͐쐅�ʏ��,�����@��������,2022/9/12 18:20,-2.25
�͐쐅�ʏ��,�����@��������,2022/9/12 18:30,-2.25
�͐쐅�ʏ��,�����@��������,2022/9/12 18:40,-2.25
�͐쐅�ʏ��,�����@��������,2022/9/12 18:50,-2.26
�͐쐅�ʏ��,�����@��������,2022/9/12 19:00,-2.26
�͐쐅�ʏ��,�����@��������,2022/9/12 19:10,-2.25
�͐쐅�ʏ��,�����@��������,2022/9/12 19:20,-2.25
�͐쐅�ʏ��,�����@��������,2022/9/12 19:30,-2.25
�͐쐅�ʏ��,�����@��������,2022/9/12 19:40,-2.25
�͐쐅�ʏ��,�����@��������,2022/9/12 19:50,-2.25
�͐쐅�ʏ��,�����@��������,2022/9/12 20:00,-2.25
�͐쐅�ʏ��,�����@��������,2022/9/12 20:10,-2.25
�͐쐅�ʏ��,�����@��������,2022/9/12 20:20,-2.26
�͐쐅�ʏ��,�����@��������,2022/9/12 20:30,-2.26
�͐쐅�ʏ��,�����@��������,2022/9/12 20:40,-2.26
�͐쐅�ʏ��,�����@��������,2022/9/12 20:50,-2.26
�͐쐅�ʏ��,�����@��������,2022/9/12 21:00,-2.26
�͐쐅�ʏ��,�����@��������,2022/9/12 21:10,-2.26
�͐쐅�ʏ��,�����@��������,2022/9/12 21:20,-2.26
�͐쐅�ʏ��,�����@��������,2022/9/12 21:30,-2.26
�͐쐅�ʏ��,�����@��������,2022/9/12 21:40,-2.26
�͐쐅�ʏ��,�����@��������,2022/9/12 21:50,-2.26
�͐쐅�ʏ��,�����@��������,2022/9/12 22:00,-2.26
�͐쐅�ʏ��,�����@��������,2022/9/12 22:10,-2.26
�͐쐅�ʏ��,�����@��������,2022/9/12 22:20,-2.26
�͐쐅�ʏ��,�����@��������,2022/9/12 22:30,-2.26
�͐쐅�ʏ��,�����@��������,2022/9/12 22:40,-2.26
�͐쐅�ʏ��,�����@��������,2022/9/12 22:50,-2.26
�͐쐅�ʏ��,�����@��������,2022/9/12 23:00,-2.26
�͐쐅�ʏ��,�����@��������,2022/9/12 23:10,-2.26
�͐쐅�ʏ��,�����@��������,2022/9/12 23:20,-2.26
�͐쐅�ʏ��,�����@��������,2022/9/12 23:40,-2.26
�͐쐅�ʏ��,�����@��������,2022/9/12 23:30,-2.26
�͐쐅�ʏ��,�����@��������,2022/9/12 23:50,-2.26
�͐쐅�ʏ��,�����@��������,2022/9/13 0:00,-2.26
�͐쐅�ʏ��,�����@��������,2022/9/13 0:10,-2.26
�͐쐅�ʏ��,�����@��������,2022/9/13 0:20,-2.26
�͐쐅�ʏ��,�����@��������,2022/9/13 0:30,-2.26
�͐쐅�ʏ��,�����@��������,2022/9/13 0:40,-2.26
�͐쐅�ʏ��,�����@��������,2022/9/13 0:50,-2.26
�͐쐅�ʏ��,�����@��������,2022/9/13 1:00,-2.26
�͐쐅�ʏ��,�����@��������,2022/9/13 1:10,-2.26
�͐쐅�ʏ��,�����@��������,2022/9/13 1:20,-2.26
�͐쐅�ʏ��,�����@��������,2022/9/13 1:30,-2.26
�͐쐅�ʏ��,�����@��������,2022/9/13 1:40,-2.26
�͐쐅�ʏ��,�����@��������,2022/9/13 1:50,-2.26
�͐쐅�ʏ��,�����@��������,2022/9/13 2:00,-2.26
�͐쐅�ʏ��,�����@��������,2022/9/13 2:10,-2.26
�͐쐅�ʏ��,�����@��������,2022/9/13 2:20,-2.26
�͐쐅�ʏ��,�����@��������,2022/9/13 2:30,-2.26
�͐쐅�ʏ��,�����@��������,2022/9/13 2:40,-2.26
�͐쐅�ʏ��,�����@��������,2022/9/13 2:50,-2.26
�͐쐅�ʏ��,�����@��������,2022/9/13 3:00,-2.26
�͐쐅�ʏ��,�����@��������,2022/9/13 3:20,-2.26
�͐쐅�ʏ��,�����@��������,2022/9/13 3:10,-2.26
�͐쐅�ʏ��,�����@��������,2022/9/13 3:30,-2.26
�͐쐅�ʏ��,�����@��������,2022/9/13 3:50,-2.26
�͐쐅�ʏ��,�����@��������,2022/9/13 3:40,-2.26
�͐쐅�ʏ��,�����@��������,2022/9/13 4:00,-2.26
�͐쐅�ʏ��,�����@��������,2022/9/13 4:10,-2.26
�͐쐅�ʏ��,�����@��������,2022/9/13 4:20,-2.26
�͐쐅�ʏ��,�����@��������,2022/9/13 4:30,-2.26
�͐쐅�ʏ��,�����@��������,2022/9/13 4:40,-2.26
�͐쐅�ʏ��,�����@��������,2022/9/13 4:50,-2.26
�͐쐅�ʏ��,�����@��������,2022/9/13 5:00,-2.26
�͐쐅�ʏ��,�����@��������,2022/9/13 5:10,-2.26
�͐쐅�ʏ��,�����@��������,2022/9/13 5:20,-2.26
�͐쐅�ʏ��,�����@��������,2022/9/13 5:30,-2.26
�͐쐅�ʏ��,�����@��������,2022/9/13 5:40,-2.26
�͐쐅�ʏ��,�����@��������,2022/9/13 5:50,-2.26
�͐쐅�ʏ��,�����@��������,2022/9/13 6:00,-2.26
�͐쐅�ʏ��,�����@��������,2022/9/13 6:10,-2.26
�͐쐅�ʏ��,�����@��������,2022/9/13 6:30,-2.26
�͐쐅�ʏ��,�����@��������,2022/9/13 6:20,-2.26
�͐쐅�ʏ��,�����@��������,2022/9/13 6:40,-2.26
�͐쐅�ʏ��,�����@��������,2022/9/13 6:50,-2.26
�͐쐅�ʏ��,�����@��������,2022/9/13 7:00,-2.26
�͐쐅�ʏ��,�����@��������,2022/9/13 7:10,-2.26
�͐쐅�ʏ��,�����@��������,2022/9/13 7:20,-2.26
�͐쐅�ʏ��,�����@��������,2022/9/13 7:30,-2.26
�͐쐅�ʏ��,�����@��������,2022/9/13 7:40,-2.26
�͐쐅�ʏ��,�����@��������,2022/9/13 7:50,-2.26
�͐쐅�ʏ��,�����@��������,2022/9/13 8:00,-2.26
�͐쐅�ʏ��,�����@��������,2022/9/13 8:10,-2.26
�͐쐅�ʏ��,�����@��������,2022/9/13 8:20,-2.26
�͐쐅�ʏ��,�����@��������,2022/9/13 8:30,-2.26
�͐쐅�ʏ��,�����@��������,2022/9/13 8:40,-2.26
�͐쐅�ʏ��,�����@��������,2022/9/13 8:50,-2.26
�͐쐅�ʏ��,�����@��������,2022/9/13 9:00,-2.26
�͐쐅�ʏ��,�����@��������,2022/9/13 9:10,-2.26
�͐쐅�ʏ��,�����@��������,2022/9/13 9:20,-2.26
�͐쐅�ʏ��,�����@��������,2022/9/13 9:30,-2.26
�͐쐅�ʏ��,�����@��������,2022/9/13 9:40,-2.26
�͐쐅�ʏ��,�����@��������,2022/9/13 9:50,-2.26
�͐쐅�ʏ��,�����@��������,2022/9/13 10:00,-2.26
�͐쐅�ʏ��,�����@��������,2022/9/13 10:10,-2.26
�͐쐅�ʏ��,�����@��������,2022/9/13 10:20,-2.26
�͐쐅�ʏ��,�����@��������,2022/9/13 10:30,-2.26
�͐쐅�ʏ��,�����@��������,2022/9/13 10:40,-2.25
�͐쐅�ʏ��,�����@��������,2022/9/13 10:50,-2.26
�͐쐅�ʏ��,�����@��������,2022/9/13 11:00,-2.26
�͐쐅�ʏ��,�����@��������,2022/9/13 11:10,-2.26
�͐쐅�ʏ��,�����@��������,2022/9/13 11:20,-2.26
�͐쐅�ʏ��,�����@��������,2022/9/13 11:30,-2.26
�͐쐅�ʏ��,�����@��������,2022/9/13 11:40,-2.26
�͐쐅�ʏ��,�����@��������,2022/9/13 11:50,-2.26
�͐쐅�ʏ��,�����@��������,2022/9/13 12:00,-2.25
�͐쐅�ʏ��,�����@��������,2022/9/13 12:10,-2.25
�͐쐅�ʏ��,�����@��������,2022/9/13 12:20,-2.25
�͐쐅�ʏ��,�����@��������,2022/9/13 12:30,-2.25
�͐쐅�ʏ��,�����@��������,2022/9/13 12:40,-2.25
�͐쐅�ʏ��,�����@��������,2022/9/13 12:50,-2.25
�͐쐅�ʏ��,�����@��������,2022/9/13 13:00,-2.26
�͐쐅�ʏ��,�����@��������,2022/9/13 13:10,-2.26
�͐쐅�ʏ��,�����@��������,2022/9/13 13:20,-2.25
�͐쐅�ʏ��,�����@��������,2022/9/13 13:30,-2.25
�͐쐅�ʏ��,�����@��������,2022/9/13 13:40,-2.25
�͐쐅�ʏ��,�����@��������,2022/9/13 13:50,-2.25
�͐쐅�ʏ��,�����@��������,2022/9/13 14:00,-2.25
�͐쐅�ʏ��,�����@��������,2022/9/13 14:10,-2.25
�͐쐅�ʏ��,�����@��������,2022/9/13 14:20,-2.25
�͐쐅�ʏ��,�����@��������,2022/9/13 14:30,-2.25
�͐쐅�ʏ��,�����@��������,2022/9/13 14:40,-2.25
�͐쐅�ʏ��,�����@��������,2022/9/13 14:50,-2.25
�͐쐅�ʏ��,�����@��������,2022/9/13 15:00,-2.25
�͐쐅�ʏ��,�����@��������,2022/9/13 15:10,-2.25
�͐쐅�ʏ��,�����@��������,2022/9/13 15:20,-2.25
�͐쐅�ʏ��,�����@��������,2022/9/13 15:30,-2.25
�͐쐅�ʏ��,�����@��������,2022/9/13 15:40,-2.25
�͐쐅�ʏ��,�����@��������,2022/9/13 15:50,-2.25
�͐쐅�ʏ��,�����@��������,2022/9/13 16:00,-2.25
�͐쐅�ʏ��,�����@��������,2022/9/13 16:10,-2.25
�͐쐅�ʏ��,�����@��������,2022/9/13 16:20,-2.25
�͐쐅�ʏ��,�����@��������,2022/9/13 16:30,-2.25
�͐쐅�ʏ��,�����@��������,2022/9/13 16:40,-2.25
�͐쐅�ʏ��,�����@��������,2022/9/13 16:50,-2.25
�͐쐅�ʏ��,�����@��������,2022/9/13 17:00,-2.25
�͐쐅�ʏ��,�����@��������,2022/9/13 17:10,-2.25
�͐쐅�ʏ��,�����@��������,2022/9/13 17:20,-2.25
�͐쐅�ʏ��,�����@��������,2022/9/13 17:30,-2.25
�͐쐅�ʏ��,�����@��������,2022/9/13 17:40,-2.25
�͐쐅�ʏ��,�����@��������,2022/9/13 17:50,-2.25
�͐쐅�ʏ��,�����@��������,2022/9/13 18:00,-2.25
�͐쐅�ʏ��,�����@��������,2022/9/13 18:10,-2.25
�͐쐅�ʏ��,�����@��������,2022/9/13 18:20,-2.25
�͐쐅�ʏ��,�����@��������,2022/9/13 18:30,-2.25
�͐쐅�ʏ��,�����@��������,2022/9/13 18:40,-2.25
�͐쐅�ʏ��,�����@��������,2022/9/13 18:50,-2.25
�͐쐅�ʏ��,�����@��������,2022/9/13 19:00,-2.25
�͐쐅�ʏ��,�����@��������,2022/9/13 19:10,-2.25
�͐쐅�ʏ��,�����@��������,2022/9/13 19:20,-2.25
�͐쐅�ʏ��,�����@��������,2022/9/13 19:30,-2.25
�͐쐅�ʏ��,�����@��������,2022/9/13 19:40,-2.25
�͐쐅�ʏ��,�����@��������,2022/9/13 19:50,-2.25
�͐쐅�ʏ��,�����@��������,2022/9/13 20:00,-2.25
�͐쐅�ʏ��,�����@��������,2022/9/13 20:10,-2.25
�͐쐅�ʏ��,�����@��������,2022/9/13 20:20,-2.25
�͐쐅�ʏ��,�����@��������,2022/9/13 20:30,-2.25
�͐쐅�ʏ��,�����@��������,2022/9/13 20:40,-2.25
�͐쐅�ʏ��,�����@��������,2022/9/13 20:50,-2.25
�͐쐅�ʏ��,�����@��������,2022/9/13 21:00,-2.25
�͐쐅�ʏ��,�����@��������,2022/9/13 21:10,-2.25
�͐쐅�ʏ��,�����@��������,2022/9/13 21:20,-2.25
�͐쐅�ʏ��,�����@��������,2022/9/13 21:30,-2.25
�͐쐅�ʏ��,�����@��������,2022/9/13 21:40,-2.25
�͐쐅�ʏ��,�����@��������,2022/9/13 21:50,-2.25
�͐쐅�ʏ��,�����@��������,2022/9/13 22:00,-2.25
�͐쐅�ʏ��,�����@��������,2022/9/13 22:10,-2.25
�͐쐅�ʏ��,�����@��������,2022/9/13 22:20,-2.25
�͐쐅�ʏ��,�����@��������,2022/9/13 22:30,-2.25
�͐쐅�ʏ��,�����@��������,2022/9/13 22:40,-2.25
�͐쐅�ʏ��,�����@��������,2022/9/13 22:50,-2.25
�͐쐅�ʏ��,�����@��������,2022/9/13 23:00,-2.25
�͐쐅�ʏ��,�����@��������,2022/9/13 23:10,-2.25
�͐쐅�ʏ��,�����@��������,2022/9/13 23:20,-2.25
�͐쐅�ʏ��,�����@��������,2022/9/13 23:30,-2.25
�͐쐅�ʏ��,�����@��������,2022/9/13 23:40,-2.25
�͐쐅�ʏ��,�����@��������,2022/9/13 23:50,-2.25
�͐쐅�ʏ��,�����@��������,2022/9/14 0:00,-2.25
�͐쐅�ʏ��,�����@��������,2022/9/14 0:10,-2.25
�͐쐅�ʏ��,�����@��������,2022/9/14 0:20,-2.26
�͐쐅�ʏ��,�����@��������,2022/9/14 0:30,-2.26
�͐쐅�ʏ��,�����@��������,2022/9/14 0:40,-2.26
�͐쐅�ʏ��,�����@��������,2022/9/14 0:50,-2.25
�͐쐅�ʏ��,�����@��������,2022/9/14 1:00,-2.26
�͐쐅�ʏ��,�����@��������,2022/9/14 1:10,-2.26
�͐쐅�ʏ��,�����@��������,2022/9/14 1:20,-2.25
�͐쐅�ʏ��,�����@��������,2022/9/14 1:30,-2.25
�͐쐅�ʏ��,�����@��������,2022/9/14 1:40,-2.26
�͐쐅�ʏ��,�����@��������,2022/9/14 1:50,-2.26
�͐쐅�ʏ��,�����@��������,2022/9/14 2:00,-2.26
�͐쐅�ʏ��,�����@��������,2022/9/14 2:10,-2.26
�͐쐅�ʏ��,�����@��������,2022/9/14 2:20,-2.26
�͐쐅�ʏ��,�����@��������,2022/9/14 2:30,-2.26
�͐쐅�ʏ��,�����@��������,2022/9/14 2:40,-2.25
�͐쐅�ʏ��,�����@��������,2022/9/14 2:50,-2.26
�͐쐅�ʏ��,�����@��������,2022/9/14 3:00,-2.26
�͐쐅�ʏ��,�����@��������,2022/9/14 3:10,-2.26
�͐쐅�ʏ��,�����@��������,2022/9/14 3:20,-2.26
�͐쐅�ʏ��,�����@��������,2022/9/14 3:30,-2.26
�͐쐅�ʏ��,�����@��������,2022/9/14 3:40,-2.26
�͐쐅�ʏ��,�����@��������,2022/9/14 3:50,-2.26
�͐쐅�ʏ��,�����@��������,2022/9/14 4:00,-2.26
�͐쐅�ʏ��,�����@��������,2022/9/14 4:10,-2.26
�͐쐅�ʏ��,�����@��������,2022/9/14 4:20,-2.26
�͐쐅�ʏ��,�����@��������,2022/9/14 4:30,-2.26
�͐쐅�ʏ��,�����@��������,2022/9/14 4:40,-2.26
�͐쐅�ʏ��,�����@��������,2022/9/14 4:50,-2.26
�͐쐅�ʏ��,�����@��������,2022/9/14 5:00,-2.26
�͐쐅�ʏ��,�����@��������,2022/9/14 5:10,-2.26
�͐쐅�ʏ��,�����@��������,2022/9/14 5:20,-2.26
�͐쐅�ʏ��,�����@��������,2022/9/14 5:30,-2.26
�͐쐅�ʏ��,�����@��������,2022/9/14 5:40,-2.26
�͐쐅�ʏ��,�����@��������,2022/9/14 5:50,-2.26
�͐쐅�ʏ��,�����@��������,2022/9/14 6:00,-2.26
�͐쐅�ʏ��,�����@��������,2022/9/14 6:10,-2.26
�͐쐅�ʏ��,�����@��������,2022/9/14 6:20,-2.25
�͐쐅�ʏ��,�����@��������,2022/9/14 6:30,-2.26
�͐쐅�ʏ��,�����@��������,2022/9/14 6:50,-2.26
�͐쐅�ʏ��,�����@��������,2022/9/14 6:40,-2.26
�͐쐅�ʏ��,�����@��������,2022/9/14 7:00,-2.25
�͐쐅�ʏ��,�����@��������,2022/9/14 7:10,-2.25
�͐쐅�ʏ��,�����@��������,2022/9/14 7:20,-2.26
�͐쐅�ʏ��,�����@��������,2022/9/14 7:30,-2.25
�͐쐅�ʏ��,�����@��������,2022/9/14 7:40,-2.25
�͐쐅�ʏ��,�����@��������,2022/9/14 7:50,-2.25
�͐쐅�ʏ��,�����@��������,2022/9/14 8:00,-2.25
�͐쐅�ʏ��,�����@��������,2022/9/14 8:10,-2.25
�͐쐅�ʏ��,�����@��������,2022/9/14 8:20,-2.25
�͐쐅�ʏ��,�����@��������,2022/9/14 8:30,-2.25
�͐쐅�ʏ��,�����@��������,2022/9/14 8:40,-2.25
�͐쐅�ʏ��,�����@��������,2022/9/14 8:50,-2.25
�͐쐅�ʏ��,�����@��������,2022/9/14 9:00,-2.25
�͐쐅�ʏ��,�����@��������,2022/9/14 9:10,-2.25
�͐쐅�ʏ��,�����@��������,2022/9/14 9:20,-2.25
�͐쐅�ʏ��,�����@��������,2022/9/14 9:30,-2.25
�͐쐅�ʏ��,�����@��������,2022/9/14 9:40,-2.25
�͐쐅�ʏ��,�����@��������,2022/9/14 9:50,-2.25
�͐쐅�ʏ��,�����@��������,2022/9/14 10:00,-2.25
�͐쐅�ʏ��,�����@��������,2022/9/14 10:10,-2.25
�͐쐅�ʏ��,�����@��������,2022/9/14 10:20,-2.25
�͐쐅�ʏ��,�����@��������,2022/9/14 10:30,-2.25
�͐쐅�ʏ��,�����@��������,2022/9/14 10:40,-2.25
�͐쐅�ʏ��,�����@��������,2022/9/14 10:50,-2.25
�͐쐅�ʏ��,�����@��������,2022/9/14 11:00,-2.25
�͐쐅�ʏ��,�����@��������,2022/9/14 11:10,-2.25
�͐쐅�ʏ��,�����@��������,2022/9/14 11:20,-2.25
�͐쐅�ʏ��,�����@��������,2022/9/14 11:30,-2.25
�͐쐅�ʏ��,�����@��������,2022/9/14 11:40,-2.24
�͐쐅�ʏ��,�����@��������,2022/9/14 11:50,-2.24
�͐쐅�ʏ��,�����@��������,2022/9/14 12:00,-2.24
�͐쐅�ʏ��,�����@��������,2022/9/14 12:10,-2.24
�͐쐅�ʏ��,�����@��������,2022/9/14 12:20,-2.24
�͐쐅�ʏ��,�����@��������,2022/9/14 12:30,-2.24
�͐쐅�ʏ��,�����@��������,2022/9/14 12:40,-2.24
�͐쐅�ʏ��,�����@��������,2022/9/14 12:50,-2.24
�͐쐅�ʏ��,�����@��������,2022/9/14 13:00,-2.24
�͐쐅�ʏ��,�����@��������,2022/9/14 13:10,-2.24
�͐쐅�ʏ��,�����@��������,2022/9/14 13:20,-2.24
�͐쐅�ʏ��,�����@��������,2022/9/14 13:30,-2.24
�͐쐅�ʏ��,�����@��������,2022/9/14 13:40,-2.24
�͐쐅�ʏ��,�����@��������,2022/9/14 13:50,-2.24
�͐쐅�ʏ��,�����@��������,2022/9/14 14:00,-2.24
�͐쐅�ʏ��,�����@��������,2022/9/14 14:10,-2.24
�͐쐅�ʏ��,�����@��������,2022/9/14 14:20,-2.24
�͐쐅�ʏ��,�����@��������,2022/9/14 14:30,-2.24
�͐쐅�ʏ��,�����@��������,2022/7/14 10:50,-2.12
�͐쐅�ʏ��,�����@��������,2022/7/14 11:00,-2.12
�͐쐅�ʏ��,�����@��������,2022/7/14 11:10,-2.12
�͐쐅�ʏ��,�����@��������,2022/7/14 11:20,-2.12
�͐쐅�ʏ��,�����@��������,2022/7/14 11:30,-2.12
�͐쐅�ʏ��,�����@��������,2022/7/14 11:40,-2.12
�͐쐅�ʏ��,�����@��������,2022/7/14 11:50,-2.12
�͐쐅�ʏ��,�����@��������,2022/7/14 12:00,-2.12
�͐쐅�ʏ��,�����@��������,2022/7/14 12:10,-2.12
�͐쐅�ʏ��,�����@��������,2022/7/14 12:20,-2.13
�͐쐅�ʏ��,�����@��������,2022/7/14 12:30,-2.13
�͐쐅�ʏ��,�����@��������,2022/7/14 12:40,-2.13
�͐쐅�ʏ��,�����@��������,2022/7/14 12:50,-2.13
�͐쐅�ʏ��,�����@��������,2022/7/14 13:00,-2.13
�͐쐅�ʏ��,�����@��������,2022/7/14 13:10,-2.14
�͐쐅�ʏ��,�����@��������,2022/7/14 13:20,-2.14
�͐쐅�ʏ��,�����@��������,2022/7/14 13:30,-2.13
�͐쐅�ʏ��,�����@��������,2022/7/14 13:40,-2.13
�͐쐅�ʏ��,�����@��������,2022/7/14 13:50,-2.14
�͐쐅�ʏ��,�����@��������,2022/7/14 14:00,-2.14
�͐쐅�ʏ��,�����@��������,2022/7/14 14:10,-2.14
�͐쐅�ʏ��,�����@��������,2022/7/14 14:20,-2.14
�͐쐅�ʏ��,�����@��������,2022/7/14 14:30,-2.14
�͐쐅�ʏ��,�����@��������,2022/7/14 14:40,-2.14
�͐쐅�ʏ��,�����@��������,2022/7/14 14:50,-2.14
�͐쐅�ʏ��,�����@��������,2022/7/14 15:00,-2.14
�͐쐅�ʏ��,�����@��������,2022/7/14 15:10,-2.13
�͐쐅�ʏ��,�����@��������,2022/7/14 15:20,-2.13
�͐쐅�ʏ��,�����@��������,2022/7/14 15:30,-2.13
�͐쐅�ʏ��,�����@��������,2022/7/14 15:40,-2.13
�͐쐅�ʏ��,�����@��������,2022/7/14 15:50,-2.13
�͐쐅�ʏ��,�����@��������,2022/7/14 16:00,-2.13
�͐쐅�ʏ��,�����@��������,2022/7/14 16:10,-2.13
�͐쐅�ʏ��,�����@��������,2022/7/14 16:20,-2.13
�͐쐅�ʏ��,�����@��������,2022/7/14 16:30,-2.13
�͐쐅�ʏ��,�����@��������,2022/7/14 16:40,-2.06
�͐쐅�ʏ��,�����@��������,2022/7/14 16:50,-2.02
�͐쐅�ʏ��,�����@��������,2022/7/14 17:00,-2
�͐쐅�ʏ��,�����@��������,2022/7/14 17:10,-1.98
�͐쐅�ʏ��,�����@��������,2022/7/14 17:20,-1.98
�͐쐅�ʏ��,�����@��������,2022/7/14 17:30,-1.97
�͐쐅�ʏ��,�����@��������,2022/7/14 17:40,-1.97
�͐쐅�ʏ��,�����@��������,2022/7/14 17:50,-1.97
�͐쐅�ʏ��,�����@��������,2022/7/14 18:00,-1.97
�͐쐅�ʏ��,�����@��������,2022/7/14 18:10,-1.96
�͐쐅�ʏ��,�����@��������,2022/7/14 18:20,-1.95
�͐쐅�ʏ��,�����@��������,2022/7/14 18:30,-1.94
�͐쐅�ʏ��,�����@��������,2022/7/14 18:40,-1.94
�͐쐅�ʏ��,�����@��������,2022/7/14 18:50,-1.93
�͐쐅�ʏ��,�����@��������,2022/7/14 19:00,-1.92
�͐쐅�ʏ��,�����@��������,2022/7/14 19:10,-1.9
�͐쐅�ʏ��,�����@��������,2022/7/14 19:20,-1.89
�͐쐅�ʏ��,�����@��������,2022/7/14 19:30,-1.88
�͐쐅�ʏ��,�����@��������,2022/7/14 19:40,-1.88
�͐쐅�ʏ��,�����@��������,2022/7/14 19:50,-1.87
�͐쐅�ʏ��,�����@��������,2022/7/14 20:00,-1.87
�͐쐅�ʏ��,�����@��������,2022/7/14 20:10,-1.88
�͐쐅�ʏ��,�����@��������,2022/7/14 20:20,-1.88
�͐쐅�ʏ��,�����@��������,2022/7/14 20:30,-1.88
�͐쐅�ʏ��,�����@��������,2022/7/14 20:40,-1.88
�͐쐅�ʏ��,�����@��������,2022/7/14 20:50,-1.89
�͐쐅�ʏ��,�����@��������,2022/7/14 21:00,-1.92
�͐쐅�ʏ��,�����@��������,2022/7/14 21:10,-1.94
�͐쐅�ʏ��,�����@��������,2022/7/14 21:20,-1.94
�͐쐅�ʏ��,�����@��������,2022/7/14 21:30,-1.93
�͐쐅�ʏ��,�����@��������,2022/7/14 21:40,-1.93
�͐쐅�ʏ��,�����@��������,2022/7/14 21:50,-1.93
�͐쐅�ʏ��,�����@��������,2022/7/14 22:00,-1.93
�͐쐅�ʏ��,�����@��������,2022/7/14 22:10,-1.93
�͐쐅�ʏ��,�����@��������,2022/7/14 22:20,-1.94
�͐쐅�ʏ��,�����@��������,2022/7/14 22:30,-1.94
�͐쐅�ʏ��,�����@��������,2022/7/14 22:40,-1.94
�͐쐅�ʏ��,�����@��������,2022/7/14 22:50,-1.95
�͐쐅�ʏ��,�����@��������,2022/7/14 23:00,-1.95
�͐쐅�ʏ��,�����@��������,2022/7/14 23:10,-1.95
�͐쐅�ʏ��,�����@��������,2022/7/14 23:20,-1.95
�͐쐅�ʏ��,�����@��������,2022/7/14 23:30,-1.96
�͐쐅�ʏ��,�����@��������,2022/7/14 23:40,-1.96
�͐쐅�ʏ��,�����@��������,2022/7/14 23:50,-1.96
�͐쐅�ʏ��,�����@��������,2022/7/15 0:00,-1.96
�͐쐅�ʏ��,�����@��������,2022/7/15 0:10,-1.97
�͐쐅�ʏ��,�����@��������,2022/7/15 0:20,-1.97
�͐쐅�ʏ��,�����@��������,2022/7/15 0:30,-1.97
�͐쐅�ʏ��,�����@��������,2022/7/15 0:40,-1.97
�͐쐅�ʏ��,�����@��������,2022/7/15 0:50,-1.97
�͐쐅�ʏ��,�����@��������,2022/7/15 1:00,-1.98
�͐쐅�ʏ��,�����@��������,2022/7/15 1:10,-1.98
�͐쐅�ʏ��,�����@��������,2022/7/15 1:20,-1.98
�͐쐅�ʏ��,�����@��������,2022/7/15 1:30,-1.98
�͐쐅�ʏ��,�����@��������,2022/7/15 1:40,-1.99
�͐쐅�ʏ��,�����@��������,2022/7/15 1:50,-1.99
�͐쐅�ʏ��,�����@��������,2022/7/15 2:00,-1.99
�͐쐅�ʏ��,�����@��������,2022/7/15 2:10,-1.99
�͐쐅�ʏ��,�����@��������,2022/7/15 2:20,-1.98
�͐쐅�ʏ��,�����@��������,2022/7/15 2:30,-1.97
�͐쐅�ʏ��,�����@��������,2022/7/15 2:40,-1.97
�͐쐅�ʏ��,�����@��������,2022/7/15 2:50,-1.95
�͐쐅�ʏ��,�����@��������,2022/7/15 3:00,-1.93
�͐쐅�ʏ��,�����@��������,2022/7/15 3:10,-1.92
�͐쐅�ʏ��,�����@��������,2022/7/15 3:20,-1.92
�͐쐅�ʏ��,�����@��������,2022/7/15 3:30,-1.91
�͐쐅�ʏ��,�����@��������,2022/7/15 3:40,-1.88
�͐쐅�ʏ��,�����@��������,2022/7/15 3:50,-1.84
�͐쐅�ʏ��,�����@��������,2022/7/15 4:00,-1.8
�͐쐅�ʏ��,�����@��������,2022/7/15 4:10,-1.79
�͐쐅�ʏ��,�����@��������,2022/7/15 4:20,-1.79
�͐쐅�ʏ��,�����@��������,2022/7/15 4:30,-1.8
�͐쐅�ʏ��,�����@��������,2022/7/15 4:40,-1.82
�͐쐅�ʏ��,�����@��������,2022/7/15 4:50,-1.83
�͐쐅�ʏ��,�����@��������,2022/7/15 5:00,-1.84
�͐쐅�ʏ��,�����@��������,2022/7/15 5:10,-1.86
�͐쐅�ʏ��,�����@��������,2022/7/15 5:20,-1.87
�͐쐅�ʏ��,�����@��������,2022/7/15 5:30,-1.89
�͐쐅�ʏ��,�����@��������,2022/7/15 5:40,-1.9
�͐쐅�ʏ��,�����@��������,2022/7/15 5:50,-1.92
�͐쐅�ʏ��,�����@��������,2022/7/15 6:00,-1.93
�͐쐅�ʏ��,�����@��������,2022/7/15 6:10,-1.95
�͐쐅�ʏ��,�����@��������,2022/7/15 6:20,-1.98
�͐쐅�ʏ��,�����@��������,2022/7/15 6:30,-2.02
�͐쐅�ʏ��,�����@��������,2022/7/15 6:40,-2
�͐쐅�ʏ��,�����@��������,2022/7/15 7:00,-1.94
�͐쐅�ʏ��,�����@��������,2022/7/15 6:50,-1.97
�͐쐅�ʏ��,�����@��������,2022/7/15 7:10,-1.93
�͐쐅�ʏ��,�����@��������,2022/7/15 7:20,-1.92
�͐쐅�ʏ��,�����@��������,2022/7/15 7:30,-1.92
�͐쐅�ʏ��,�����@��������,2022/7/15 7:40,-1.92
�͐쐅�ʏ��,�����@��������,2022/7/15 7:50,-1.91
�͐쐅�ʏ��,�����@��������,2022/7/15 8:00,-1.91
�͐쐅�ʏ��,�����@��������,2022/7/15 8:10,-1.91
�͐쐅�ʏ��,�����@��������,2022/7/15 8:20,-1.91
�͐쐅�ʏ��,�����@��������,2022/7/15 8:30,-1.9
�͐쐅�ʏ��,�����@��������,2022/7/15 8:40,-1.9
�͐쐅�ʏ��,�����@��������,2022/7/15 8:50,-1.9
�͐쐅�ʏ��,�����@��������,2022/7/15 9:00,-1.9
�͐쐅�ʏ��,�����@��������,2022/7/15 9:20,-1.9
�͐쐅�ʏ��,�����@��������,2022/7/15 9:10,-1.9
�͐쐅�ʏ��,�����@��������,2022/7/15 9:30,-1.9
�͐쐅�ʏ��,�����@��������,2022/7/15 9:40,-1.9
�͐쐅�ʏ��,�����@��������,2022/7/15 9:50,-1.9
�͐쐅�ʏ��,�����@��������,2022/7/15 10:00,-1.89
�͐쐅�ʏ��,�����@��������,2022/7/15 10:10,-1.88
�͐쐅�ʏ��,�����@��������,2022/7/15 10:20,-1.87
�͐쐅�ʏ��,�����@��������,2022/7/15 10:30,-1.87
�͐쐅�ʏ��,�����@��������,2022/7/15 10:40,-1.88
�͐쐅�ʏ��,�����@��������,2022/7/15 10:50,-1.88
�͐쐅�ʏ��,�����@��������,2022/7/15 11:00,-1.88
�͐쐅�ʏ��,�����@��������,2022/7/15 11:10,-1.88
�͐쐅�ʏ��,�����@��������,2022/7/15 11:20,-1.88
�͐쐅�ʏ��,�����@��������,2022/7/15 11:40,-1.88
�͐쐅�ʏ��,�����@��������,2022/7/15 11:30,-1.88
�͐쐅�ʏ��,�����@��������,2022/7/15 11:50,-1.88
�͐쐅�ʏ��,�����@��������,2022/7/15 12:00,-1.88
�͐쐅�ʏ��,�����@��������,2022/7/15 12:10,-1.89
�͐쐅�ʏ��,�����@��������,2022/7/15 12:20,-1.89
�͐쐅�ʏ��,�����@��������,2022/7/15 12:30,-1.89
�͐쐅�ʏ��,�����@��������,2022/7/15 12:40,-1.89
�͐쐅�ʏ��,�����@��������,2022/7/15 12:50,-1.85
�͐쐅�ʏ��,�����@��������,2022/7/15 13:00,-1.74
�͐쐅�ʏ��,�����@��������,2022/7/15 13:10,-1.66
�͐쐅�ʏ��,�����@��������,2022/7/15 13:20,-1.61
�͐쐅�ʏ��,�����@��������,2022/7/15 13:30,-1.48
�͐쐅�ʏ��,�����@��������,2022/7/15 13:50,-1.31
�͐쐅�ʏ��,�����@��������,2022/7/15 13:40,-1.39
�͐쐅�ʏ��,�����@��������,2022/7/15 14:00,-1.27
�͐쐅�ʏ��,�����@��������,2022/7/15 14:10,-1.26
�͐쐅�ʏ��,�����@��������,2022/7/15 14:20,-1.28
�͐쐅�ʏ��,�����@��������,2022/7/15 14:30,-1.32
�͐쐅�ʏ��,�����@��������,2022/7/15 14:37,-1.34
�͐쐅�ʏ��,�����@��������,2022/7/15 14:40,-1.35
�͐쐅�ʏ��,�����@��������,2022/7/15 14:40,-1.35
�͐쐅�ʏ��,�����@��������,2022/7/15 14:43,-1.36
�͐쐅�ʏ��,�����@��������,2022/7/15 14:50,-1.37
�͐쐅�ʏ��,�����@��������,2022/7/15 14:50,-1.38
�͐쐅�ʏ��,�����@��������,2022/7/15 14:51,-1.38
�͐쐅�ʏ��,�����@��������,2022/7/15 14:52,-1.38
�͐쐅�ʏ��,�����@��������,2022/7/15 15:00,-1.44
�͐쐅�ʏ��,�����@��������,2022/7/15 15:00,-1.45
�͐쐅�ʏ��,�����@��������,2022/7/15 15:01,-1.46
�͐쐅�ʏ��,�����@��������,2022/7/15 15:01,-1.46
�͐쐅�ʏ��,�����@��������,2022/7/15 15:04,-1.49
�͐쐅�ʏ��,�����@��������,2022/7/15 15:04,-1.49
�͐쐅�ʏ��,�����@��������,2022/7/15 15:05,-1.5
�͐쐅�ʏ��,�����@��������,2022/7/15 15:06,-1.51
�͐쐅�ʏ��,�����@��������,2022/7/15 15:06,-1.51
�͐쐅�ʏ��,�����@��������,2022/7/15 15:07,-1.51
�͐쐅�ʏ��,�����@��������,2022/7/15 15:07,-1.52
�͐쐅�ʏ��,�����@��������,2022/7/15 15:10,-1.54
�͐쐅�ʏ��,�����@��������,2022/7/15 15:10,-1.54
�͐쐅�ʏ��,�����@��������,2022/7/15 15:20,-1.6
�͐쐅�ʏ��,�����@��������,2022/7/15 15:30,-1.64
�͐쐅�ʏ��,�����@��������,2022/7/15 15:40,-1.66
�͐쐅�ʏ��,�����@��������,2022/7/15 15:50,-1.69
�͐쐅�ʏ��,�����@��������,2022/7/15 16:00,-1.72
�͐쐅�ʏ��,�����@��������,2022/7/15 16:10,-1.74
�͐쐅�ʏ��,�����@��������,2022/7/15 16:20,-1.75
�͐쐅�ʏ��,�����@��������,2022/7/15 16:30,-1.78
�͐쐅�ʏ��,�����@��������,2022/7/15 16:40,-1.86
�͐쐅�ʏ��,�����@��������,2022/7/15 16:50,-1.92
�͐쐅�ʏ��,�����@��������,2022/7/15 17:00,-1.96
�͐쐅�ʏ��,�����@��������,2022/7/15 17:10,-1.99
�͐쐅�ʏ��,�����@��������,2022/7/15 17:20,-2.02
�͐쐅�ʏ��,�����@��������,2022/7/15 17:40,-2.06
�͐쐅�ʏ��,�����@��������,2022/7/15 17:30,-2.04
�͐쐅�ʏ��,�����@��������,2022/7/15 17:50,-2.07
�͐쐅�ʏ��,�����@��������,2022/7/15 18:00,-2.08
�͐쐅�ʏ��,�����@��������,2022/7/15 18:10,-2.09
�͐쐅�ʏ��,�����@��������,2022/7/15 18:20,-2.1
�͐쐅�ʏ��,�����@��������,2022/7/15 18:30,-2.1
�͐쐅�ʏ��,�����@��������,2022/7/15 18:40,-2.1
�͐쐅�ʏ��,�����@��������,2022/7/15 18:50,-2.11
�͐쐅�ʏ��,�����@��������,2022/7/15 19:00,-2.11
�͐쐅�ʏ��,�����@��������,2022/7/15 19:10,-2.11
�͐쐅�ʏ��,�����@��������,2022/7/15 19:20,-2.11
�͐쐅�ʏ��,�����@��������,2022/7/15 19:30,-2.11
�͐쐅�ʏ��,�����@��������,2022/7/15 19:40,-2.12
�͐쐅�ʏ��,�����@��������,2022/7/15 19:50,-2.12
�͐쐅�ʏ��,�����@��������,2022/7/15 20:00,-2.12
�͐쐅�ʏ��,�����@��������,2022/7/15 20:10,-2.12
�͐쐅�ʏ��,�����@��������,2022/7/15 20:20,-2.12
�͐쐅�ʏ��,�����@��������,2022/7/15 20:30,-2.12
�͐쐅�ʏ��,�����@��������,2022/7/15 20:40,-2.12
�͐쐅�ʏ��,�����@��������,2022/7/15 20:50,-2.12
�͐쐅�ʏ��,�����@��������,2022/7/15 21:00,-2.12
�͐쐅�ʏ��,�����@��������,2022/7/15 21:10,-2.13
�͐쐅�ʏ��,�����@��������,2022/7/15 21:20,-2.14
�͐쐅�ʏ��,�����@��������,2022/7/15 21:30,-2.16